This is the latest recevied weather packets stored in our database for station/object N1OF. If no packets are shown the sender has not sent any weather packets the latest 10 day(s).
| Time | Temp. | Humidity | Pressure | Rain* | Wind** | Luminosity | Snow |
|---|---|---|---|---|---|---|---|
| 1777975454 | 15.56° C | 75% | 1004.1 hPa | 0 mm | - | - | - |
| 1777975149 | 15.56° C | 76% | 1004 hPa | 0 mm | - | - | - |
| 1777974846 | 15° C | 76% | 1004.3 hPa | 0 mm | - | - | - |
| 1777974543 | 15° C | 77% | 1004.2 hPa | 0 mm | - | - | - |
| 1777974240 | 15° C | 78% | 1004.5 hPa | 0 mm | - | - | - |
| 1777973935 | 15° C | 78% | 1004.4 hPa | 0 mm | - | - | - |
| 1777973633 | 15° C | 78% | 1004.7 hPa | 0 mm | - | - | - |
| 1777973330 | 15° C | 78% | 1004.6 hPa | 0 mm | - | - | - |
| 1777973028 | 15° C | 79% | 1004.9 hPa | 0 mm | - | - | - |
| 1777972725 | 15° C | 80% | 1004.6 hPa | 0 mm | - | - | - |
| 1777972423 | 15° C | 80% | 1004.4 hPa | 0 mm | - | - | - |
| 1777972121 | 15° C | 81% | 1004.6 hPa | 0 mm | - | - | - |
| 1777971819 | 15° C | 81% | 1004.8 hPa | 0 mm | - | - | - |
| 1777971515 | 15° C | 80% | 1004.8 hPa | 0 mm | - | - | - |
| 1777971213 | 15° C | 79% | 1004.5 hPa | 0 mm | - | - | - |
| 1777970911 | 15.56° C | 78% | 1004.4 hPa | 0 mm | - | - | - |
| 1777970609 | 15° C | 78% | 1004.3 hPa | 0 mm | - | - | - |
| 1777970306 | 15.56° C | 78% | 1004.2 hPa | 0 mm | - | - | - |
| 1777970004 | 15.56° C | 78% | 1004 hPa | 0 mm | - | - | - |
| 1777969700 | 15.56° C | 76% | 1004.2 hPa | 0 mm | - | - | - |
| 1777969391 | 15.56° C | 75% | 1004.2 hPa | 0 mm | - | - | - |
| 1777969088 | 16.11° C | 73% | 1004.4 hPa | 0 mm | - | - | - |
| 1777968785 | 16.67° C | 72% | 1004.2 hPa | 0 mm | - | - | - |
| 1777968481 | 17.22° C | 69% | 1004.5 hPa | 0 mm | - | - | - |
| 1777968177 | 17.22° C | 67% | 1004.6 hPa | 0 mm | - | - | - |
* Rain latest hour (hover to see other rain measurements)
** Current wind speed in m/s (hover to see current wind gust speed)